Regional Weather Roundup
Issued by NWS

Home | Current Version | Previous Version | Text Only | Print | Product List | Glossary Off
Versions: 1 2 3 4 5 6 7 8 9 10 11 12 13 14 15 16 17 18 19 20 21 22 23 24 25 26 27 28 29 30 31 32 33 34 35 36 37 38 39 40 41 42 43 44 45 46 47 48 49 50

000
ASUS43 KDMX 171601
RWRIA

WEATHER ROUNDUP FOR IOWA
NATIONAL WEATHER SERVICE DES MOINES IA
1100 AM CDT THU AUG 17 2017

NOTE: "FAIR" INDICATES FEW OR NO CLOUDS BELOW 12,000 FEET WITH NO
SIGNIFICANT WEATHER AND/OR OBSTRUCTIONS TO VISIBILITY.

* - THESE STATIONS ARE NOT NWS STATIONS...THUS NOT UNDER NWS
QUALITY CONTROL.  THEY ALSO DO NOT REPORT WEATHER SUCH
AS PRECIPITATION OR FOG.

IAZ001>003-012>014-020>022-031>034-043>046-171700-
   NORTHWEST IOWA

CITY           SKY/WX    TMP DP  RH WIND       PRES   REMARKS
CARROLL *      CLOUDY    68  61  77 NW17G29   29.86S
CHEROKEE *     CLOUDY    68  62  79 NW17G23   29.87S
DENISON *      MOSUNNY   72  61  68 NW14G23   29.90S
LE MARS *      MOSUNNY   72  61  68 NW12G21   29.89F
ORANGE CITY *  PTSUNNY   70  63  78 NW15G21   29.89S
SHELDON *      CLOUDY    66  59  77 W8G20     29.87S
SIOUX CITY     SUNNY     73  61  65 NW21G31   29.89F
SPENCER        CLOUDY    67  61  81 W22G29    29.85R
STORM LAKE *     N/A     68  61  77 NW20G26   29.86R
$$

IAZ055>058-069>071-079>083-090>094-171700-
   SOUTHWEST IOWA

CITY           SKY/WX    TMP DP  RH WIND       PRES   REMARKS
ATLANTIC *     SUNNY     72  61  68 NW18G25   29.89R
AUDUBON *      MOSUNNY   72  63  73 NW10G18   29.89R
CLARINDA *     SUNNY     73  64  73 NW10G20   29.94R
COUNCIL BLFS * SUNNY     73  63  68 NW16G24   29.92R
CRESTON *      MOSUNNY   72  61  68 NW18G25   29.90R
HARLAN  *      SUNNY     72  63  73 NW17G25   29.93R
LAMONI         PTSUNNY   74  63  68 W13       29.90R
RED OAK *      SUNNY     73  61  64 NW12G21   29.92R
SHENANDOAH *   SUNNY     73  63  68 W13G18    29.94R
$$

IAZ047>049-059>061-072>074-084-171700-
   CENTRAL IOWA

CITY           SKY/WX    TMP DP  RH WIND       PRES   REMARKS
AMES           CLOUDY    70  65  84 W14G23    29.82R
ANKENY *       CLOUDY    72  64  78 W18G24    29.83S
BOONE *        CLOUDY    70  63  78 W15G23    29.82S
CHARITON *     CLOUDY    72  63  73 W9G17     29.87R
DES MOINES     CLOUDY    72  63  73 W17       29.83R
GRINNELL*      CLOUDY    73  64  74 W17G26    29.81R
KNOXVILLE *    CLOUDY    73  63  68 W17       29.83R
MARSHALLTOWN   PTSUNNY   73  65  75 W18G28    29.78S
NEWTON *       CLOUDY    73  64  73 W13G23    29.82R
PELLA *        CLOUDY    74  63  68 W15G21    29.84R
PERRY *        CLOUDY    70  64  83 NW12G22   29.85S
$$

IAZ004>006-015-016-023>025-035-036-171700-
   NORTH CENTRAL IOWA

CITY           SKY/WX    TMP DP  RH WIND       PRES   REMARKS
ALGONA *       CLOUDY    68  66  94 W18G31    29.81R
CLARION *      CLOUDY    70  66  88 W17G24    29.80R
ESTHERVILLE    CLOUDY    65  63  93 NW17G23   29.81R
FORT DODGE *   CLOUDY    70  61  73 W15G21    29.83R
MASON CITY     CLOUDY    67  64  90 W22G31    29.76R
FOREST CITY *  CLOUDY    70  64  83 W20G28    29.75S
WEBSTER CITY * CLOUDY    72  64  78 W20G25    29.80R
IOWA FALLS *   CLOUDY    72  64  78 W21G29    29.80R
$$

IAZ007>011-017>019-026>030-037>042-050>054-066-171700-
   NORTHEAST IOWA

CITY           SKY/WX    TMP DP  RH WIND       PRES   REMARKS
CEDAR RAPIDS   CLOUDY    73  65  75 W17G23    29.77R
CHARLES CITY * CLOUDY    68  66  94 W18G30    29.72R FOG
CLINTON *      CLOUDY    73  66  78 SW14      29.77R
DECORAH *      CLOUDY    68  64  88 W13G25    29.67R
DUBUQUE        MOSUNNY   71  65  81 SW20G25   29.74R
MONTICELLO *   CLOUDY    72  66  83 W15G23    29.75R
OELWEIN *      CLOUDY    72  66  83 W21G28    29.73R
WATERLOO       CLOUDY    74  63  68 W18G32    29.74R
$$

IAZ064-065-067-068-078-171700-
   EAST CENTRAL IOWA

CITY           SKY/WX    TMP DP  RH WIND       PRES   REMARKS
DAVENPORT      CLOUDY    74  64  71 SW15G23   29.80S
IOWA CITY      CLOUDY    74  65  73 SW12G17   29.80R
MUSCATINE *    CLOUDY    75  64  69 W15G22    29.81R
QUAD CITIES    CLOUDY    75  64  68 W16G22    29.79R
$$

IAZ062-063-075>077-085>089-095>099-171700-
   SOUTHEAST IOWA

CITY           SKY/WX    TMP DP  RH WIND       PRES   REMARKS
BURLINGTON     SUNNY     77  67  71 SW14      29.83R
FAIRFIELD *    MOSUNNY   75  64  69 W14G21    29.83R
FORT MADISON * SUNNY     77  66  69 SW9       29.84S
KEOKUK *       CLOUDY    79  64  61 SW15G21   29.84S HX  81
OSKALOOSA *    PTSUNNY   76  65  69 W14       29.84R
OTTUMWA        PTSUNNY   77  64  64 W16       29.83R
WASHINGTON *   PTSUNNY   73  66  78 W14       29.83R
$$

ABBREVIATIONS USED IN REMARKS
   TC - TEMPERATURES IN CELSIUS
  WCI - WIND CHILL INDEX
   HX - HEAT INDEX
  VSB - VISIBILITY
$$





USA.gov is the U.S. government's official web portal to all federal, state and local government web resources and services.